PROGRESS-MS 21 (54155 NORAD) Tracking and Keplerian Element Data

This shows tracking and keplerian element data for the satellite.

Feedback or suggestion? Click here.




ElementValue
Catalog54155
NamePROGRESS-MS 21
Epoch Orbit37779
Epoch Day13.45358267
Epoch Year2023
RAAN14.985
Inclination51.6444
Eccentricity0.0004589
Argument of Perigee262.0511
Mean Anonmoly194.108
Mean Motion15.50172483
Decay Rate0.00014835
L11 54155U 22140A 23013.45358267 .00014835 00000+0 26576-3 0 9997
L22 54155 51.6444 14.9850 0004589 262.0511 194.1080 15.50172483377798



Live tracking and technical data element details for PROGRESS-MS 21 (NORAD 54155). PROGRESS-MS 21 can be tracked NOW for your location showing map with azimuth and elevation plus other details from your city location.







IsCatalogInMostPopularTable: catalog: 54155, numindb: 17
Update: records affected: 1



GetName: 54155 PROGRESS-MS 21

Hit Count: updated at: Fri, 27 Jan 2023 21:48:00 GMT